[[{"header":{"parameterUnit":"m.s-1","parameterCategory":2,"la1":30.2991,"la2":30.254,"lo1":-89.0895,"lo2":-89.0444,"dy":0.0017,"dx":0.0017,"nx":28,"ny":28,"refTime":"2023-04-29T21:00:00:Z","depth":"0","parameterNumber":2,"parameterNumberName":"U-component_of_CURRENTS"},"data":[0,0,0,0,0,0,0,0,0,0,0,0,0,0,0,0,0,0,0,0,0,0,0,0,0,0,0,0,0,0,0,0,0,0,0,0,0,0,0,0,0,0,0,0,0,0,0,0,0,0,0,0,0,0,0,0,0,0,0.4397,0.4401,0,0.46,0.46,0.4601,0.4628,0.4628,0.4628,0.4629,0.4445,0.444,0.4435,0,0,0,0,0,0,0,0,0,0,0,0,0,0.4179,0.418,0.4396,0.4401,0.4406,0.46,0.46,0.4601,0.4628,0.4628,0.4628,0.4629,0.4447,0.4441,0.4435,0,0,0,0,0,0,0,0,0,0,0,0,0,0.4295,0.418,0.4395,0.4459,0.4469,0.46,0.46,0.4601,0.4628,0.4628,0.4629,0.4629,0.4449,0.4441,0.4434,0.4381,0,0,0.4411,0.4407,0,0,0,0,0,0,0,0,0.4288,0.4299,0.4445,0.4456,0.4467,0.4609,0.4458,0.4516,0.4628,0.4543,0.4629,0.4629,0.4479,0.4469,0.4479,0.4373,0.4365,0.441,0.4405,0.4402,0.44,0,0,0,0,0,0,0,0.4279,0.4292,0.4453,0.4451,0.4464,0.4531,0.4543,0.447,0.4482,0.4551,0.4559,0.4618,0.4478,0.4487,0.4474,0.4362,0.441,0.4403,0.4399,0.4396,0.4188,0.4187,0,0,0,0,0,0,0.4293,0.4284,0.4448,0.4462,0.4402,0.4535,0.4548,0.4544,0.4491,0.4494,0.4618,0.4619,0.45,0.4483,0.4468,0.4339,0.4402,0.4395,0.4391,0.4189,0.4188,0.4187,0,0,0,0,0,0,0.4286,0.4302,0.444,0.44,0.4425,0.454,0.4534,0.4549,0.4566,0.4551,0.4541,0.4625,0.4499,0.4478,0.4394,0.4334,0.4392,0.4385,0.419,0.4188,0.4187,0.4121,0,0,0,0,0,0,0.4277,0.4296,0.427,0.4398,0.4429,0.4461,0.4537,0.4553,0.4614,0.4616,0.4553,0.4537,0.4498,0.4406,0.4387,0.4325,0.4379,0.4191,0.4189,0.4187,0.4124,0.4117,0.4111,0,0,0,0,0,0.4267,0.4222,0.4265,0.4287,0.4394,0.4461,0.4475,0.4548,0.4614,0.4572,0.4567,0.4539,0.4381,0.4399,0.4376,0.4311,0.4192,0.419,0.4188,0.4127,0.4119,0.4111,0,0,0,0,0,0,0.4079,0.4228,0.4276,0.4267,0.4344,0.4473,0.4464,0.4551,0.4527,0.4517,0.4516,0.4495,0.441,0.4376,0.4397,0.4253,0.4285,0.4279,0.4247,0.4238,0.4232,0.4189,0.4372,0,0,0,0,0,0.4042,0.4038,0.4198,0.4166,0.4219,0.4349,0.439,0.4443,0.4477,0.4472,0.4466,0.4434,0.4385,0.4326,0.4279,0.4177,0.4121,0.4128,0.4122,0.4116,0.407,0.3977,0.3957,0.4179,0.4179,0.4179,0,0,0.396,0.4039,0.4035,0.4128,0.4196,0.4212,0.4362,0.4398,0.4391,0.4444,0.4394,0.441,0.4364,0.4268,0.4224,0.4222,0.4021,0.4113,0.4108,0.4064,0.3972,0.395,0.393,0.4178,0.4178,0.4178,0,0,0.3786,0.3866,0.3815,0.3886,0.4002,0.4089,0.4108,0.4243,0.4274,0.4267,0.4307,0.4288,0.4229,0.4176,0.4145,0.4068,0.4012,0.4069,0.3959,0.3871,0.385,0.3832,0.3715,0.3686,0.4038,0.4038,0.4038,0,0.3672,0.3645,0.3801,0.3787,0.3831,0.4031,0.3992,0.4054,0.4137,0.4142,0.4222,0.4184,0.4174,0.4039,0.4041,0.4043,0.3984,0.399,0.3857,0.3838,0.382,0.3705,0.3675,0.4034,0.4035,0.4035,0.4036,0,0.349,0.3477,0.3456,0.3504,0.3558,0.3553,0.3713,0.3747,0.3867,0.3942,0.3913,0.3946,0.3918,0.3931,0.3966,0.383,0.3826,0.3882,0.387,0.3793,0.3678,0.3647,0.403,0.4031,0.4032,0.4033,0,0,0.3205,0.3304,0.329,0.3281,0.3419,0.3436,0.3448,0.3505,0.3501,0.3611,0.3573,0.3591,0.3685,0.3657,0.3706,0.3645,0.3511,0.371,0.3707,0.3577,0.3278,0.3223,0.3184,0.3548,0.3543,0.3539,0.3242,0,0.3001,0.2912,0.3026,0.2934,0.2924,0.3111,0.31,0.3181,0.3296,0.3311,0.34,0.3389,0.3555,0.3554,0.3526,0.3534,0.3429,0.3583,0.3384,0.3376,0.3324,0.3147,0.3168,0.2901,0.3211,0.3206,0.3203,0,0.2788,0.2769,0.2652,0.2687,0.2697,0.2668,0.2722,0.2737,0.2838,0.2934,0.2989,0.3111,0.3082,0.3246,0.3157,0.3253,0.3241,0.3243,0.3232,0.3171,0.3262,0.3032,0.2833,0.2865,0.3155,0.3159,0.3162,0,0.2538,0.2506,0.24,0.2416,0.2486,0.2451,0.2481,0.2589,0.2623,0.2684,0.2731,0.2758,0.2783,0.2781,0.2908,0.3005,0.2784,0.2911,0.2808,0.2803,0.2771,0.2772,0.2559,0.2755,0.2756,0.2757,0.2758,0,0.2309,0.2221,0.2267,0.2217,0.2114,0.2216,0.2144,0.2223,0.2292,0.232,0.2504,0.2538,0.268,0.2666,0.2741,0.2666,0.2642,0.2706,0.2695,0.275,0.2753,0.2744,0.2761,0.2746,0.2748,0.275,0.2752,0,0.208,0.2097,0.2002,0.2008,0.2007,0.1935,0.1999,0.1984,0.2055,0.2093,0.2116,0.2307,0.2326,0.2405,0.2381,0.243,0.2297,0.2333,0.2378,0.2377,0.2346,0.2358,0.1827,0.1804,0.2135,0.2132,0.2129,0,0.1961,0.1879,0.1862,0.184,0.184,0.1785,0.1793,0.187,0.1907,0.1995,0.201,0.204,0.215,0.2051,0.2116,0.207,0.2101,0.2016,0.2207,0.225,0.2257,0.2106,0.212,0.2131,0.2128,0.2126,0.2124,0,0.1767,0.1763,0.1723,0.1685,0.1662,0.166,0.1667,0.1667,0.1779,0.1817,0.1886,0.1935,0.1931,0.1972,0.1902,0.1911,0.194,0.1965,0.1995,0.2171,0.1997,0.2008,0.2414,0.2104,0.2106,0.2107,0.2108,0.2109,0.1657,0.1612,0.1589,0.1559,0.1551,0.1563,0.1544,0.1595,0.1626,0.1699,0.1767,0.1811,0.1898,0.187,0.1824,0.1807,0.1752,0.187,0.1854,0.1673,0.1707,0.2034,0.1745,0.1745,0.1745,0.1745,0.1745,0,0.1547,0.1524,0.1487,0.1472,0.1465,0.1487,0.1506,0.1504,0.154,0.1611,0.1662,0.1722,0.1764,0.1795,0.1806,0.1758,0.168,0.1734,0.161,0.1625,0.1924,0.2001,0.1772,0.1772,0.1772,0.1772,0.1772,0.1772,0.148,0.1432,0.1438,0.1414,0.1413,0.1399,0.1406,0.1405,0.1437,0.1465,0.1488,0.1522,0.1608,0.1652,0.1676,0.1676,0.1623,0.1465,0.1449,0.1839,0.1856,0.1871,0.195,0.1715,0.1714,0.1152,0.1148,0.1145]},{"header":{"parameterUnit":"m.s-1","parameterCategory":2,"la1":30.2991,"la2":30.254,"lo1":-89.0895,"lo2":-89.0444,"dy":0.0017,"dx":0.0017,"nx":28,"ny":28,"refTime":"2023-04-29T21:00:00:Z","depth":"0","parameterNumber":3,"parameterNumberName":"V-component_of_CURRENTS"},"data":[0,0,0,0,0,0,0,0,0,0,0,0,0,0,0,0,0,0,0,0,0,0,0,0,0,0,0,0,0,0,0,0,0,0,0,0,0,0,0,0,0,0,0,0,0,0,0,0,0,0,0,0,0,0,0,0,0,0,-0.0282,-0.0282,0,-0.0238,-0.0238,-0.0237,-0.0277,-0.0279,-0.028,-0.0282,-0.0313,-0.0313,-0.0312,0,0,0,0,0,0,0,0,0,0,0,0,0,-0.0424,-0.0421,-0.0282,-0.0282,-0.0281,-0.0238,-0.0238,-0.0237,-0.0277,-0.0279,-0.0281,-0.0283,-0.0314,-0.0313,-0.0312,0,0,0,0,0,0,0,0,0,0,0,0,0,-0.0368,-0.042,-0.0282,-0.0297,-0.0298,-0.0239,-0.0238,-0.0237,-0.0276,-0.0279,-0.0281,-0.0284,-0.0314,-0.0313,-0.0312,-0.0251,0,0,-0.0308,-0.0307,0,0,0,0,0,0,0,0,-0.0371,-0.0362,-0.0296,-0.0296,-0.0297,-0.0267,-0.0299,-0.0246,-0.0276,-0.0283,-0.0282,-0.0285,-0.0304,-0.0304,-0.0286,-0.0252,-0.0254,-0.0308,-0.0307,-0.0306,-0.0306,0,0,0,0,0,0,0,-0.0375,-0.0364,-0.0263,-0.0295,-0.0296,-0.0314,-0.0309,-0.0289,-0.0279,-0.0282,-0.0286,-0.0282,-0.0305,-0.0287,-0.0288,-0.0254,-0.0308,-0.0307,-0.0306,-0.0305,-0.0229,-0.0228,0,0,0,0,0,0,-0.0378,-0.0367,-0.0265,-0.0262,-0.0343,-0.031,-0.0304,-0.0273,-0.0278,-0.0281,-0.028,-0.0284,-0.0288,-0.0289,-0.0289,-0.0243,-0.0306,-0.0305,-0.0305,-0.023,-0.0229,-0.0227,0,0,0,0,0,0,-0.0381,-0.0368,-0.0267,-0.0318,-0.0306,-0.0304,-0.027,-0.0271,-0.0248,-0.0276,-0.0281,-0.0257,-0.029,-0.0291,-0.0266,-0.0244,-0.0305,-0.0304,-0.0232,-0.023,-0.0228,-0.0134,0,0,0,0,0,0,-0.0384,-0.0368,-0.0344,-0.0316,-0.0303,-0.0209,-0.0267,-0.0268,-0.0244,-0.0248,-0.0257,-0.0263,-0.0292,-0.0268,-0.0265,-0.0243,-0.0303,-0.0233,-0.0231,-0.0229,-0.0139,-0.013,-0.0121,0,0,0,0,0,-0.0389,-0.0328,-0.0342,-0.0331,-0.027,-0.0207,-0.02,-0.0209,-0.024,-0.0204,-0.0227,-0.0263,-0.0252,-0.0264,-0.0262,-0.0239,-0.0235,-0.0232,-0.0229,-0.0143,-0.0131,-0.0121,0,0,0,0,0,0,-0.0343,-0.0326,-0.0341,-0.027,-0.0239,-0.0214,-0.0181,-0.019,-0.0175,-0.0184,-0.0228,-0.0232,-0.0211,-0.0228,-0.0241,-0.0213,-0.0255,-0.0251,-0.0191,-0.018,-0.0171,-0.015,-0.0302,0,0,0,0,0,-0.0329,-0.0287,-0.0273,-0.0204,-0.0198,-0.0188,-0.0166,-0.0163,-0.0151,-0.0146,-0.0165,-0.0185,-0.0192,-0.0189,-0.0195,-0.0155,-0.0176,-0.0146,-0.0137,-0.013,-0.0111,-0.0127,-0.0118,-0.0218,-0.0218,-0.0218,0,0,-0.0274,-0.027,-0.0234,-0.0194,-0.0177,-0.0145,-0.0179,-0.012,-0.0097,-0.015,-0.0124,-0.0146,-0.0175,-0.0151,-0.0143,-0.0163,-0.011,-0.0126,-0.0119,-0.0104,-0.0123,-0.0113,-0.0105,-0.0216,-0.0216,-0.0216,0,0,-0.0166,-0.0157,-0.0108,-0.0099,-0.0079,-0.0075,-0.0058,-0.0035,-0.0033,0.0003,-0.005,-0.0048,-0.0049,-0.0068,-0.008,-0.0016,-0.0064,-0.0029,0.0041,0.0026,0.0034,0.0041,0.0038,0.0043,-0.0022,-0.0022,-0.0022,0,-0.0103,-0.0063,-0.0072,-0.005,-0.0043,-0.0048,-0.0004,0.0013,0.0041,0.005,0.0021,0.0015,-0.001,0.0007,0.0018,0.0006,-0.001,0.0002,0.0038,0.0044,0.005,0.0044,0.005,-0.0017,-0.0018,-0.0018,-0.0019,0,0.0011,0.0027,0.0063,0.0068,0.0087,0.0139,0.0129,0.0156,0.0145,0.0148,0.017,0.0142,0.0135,0.0122,0.0091,0.0117,0.0091,0.0048,0.0012,0.0066,0.0057,0.006,-0.001,-0.0012,-0.0013,-0.0015,0,0,0.0186,0.0149,0.0155,0.0138,0.0141,0.0172,0.0209,0.024,0.0258,0.0274,0.0302,0.029,0.0272,0.0258,0.0217,0.0208,0.023,0.0153,0.015,0.0155,0.0206,0.0204,0.0207,0.0187,0.0188,0.0189,0.0188,0,0.0273,0.0301,0.0271,0.0309,0.031,0.0288,0.0315,0.0338,0.0344,0.0372,0.0359,0.0366,0.0322,0.0315,0.0309,0.0245,0.0243,0.0235,0.0151,0.0149,0.0143,0.0213,0.0246,0.025,0.0192,0.0192,0.0193,0,0.0364,0.0357,0.0388,0.0359,0.0364,0.0392,0.0408,0.0434,0.0462,0.0465,0.0486,0.047,0.0481,0.0419,0.0378,0.0373,0.0309,0.0258,0.0255,0.0226,0.0155,0.0184,0.0258,0.0225,0.0198,0.0197,0.0197,0,0.0416,0.0429,0.0442,0.0435,0.0422,0.0441,0.045,0.0468,0.0484,0.0523,0.0535,0.0555,0.0545,0.0498,0.0417,0.0393,0.0359,0.0303,0.0248,0.0247,0.0247,0.0245,0.0285,0.0274,0.0274,0.0274,0.0274,0,0.0469,0.0475,0.0463,0.046,0.0491,0.0472,0.0512,0.052,0.0548,0.0584,0.0579,0.0604,0.0558,0.0537,0.0462,0.0389,0.0396,0.0289,0.0256,0.0282,0.0282,0.0228,0.0209,0.0274,0.0274,0.0274,0.0274,0,0.0477,0.0477,0.0479,0.0486,0.0497,0.0508,0.053,0.0559,0.0569,0.0616,0.0631,0.0644,0.0617,0.0566,0.0488,0.0431,0.0361,0.0322,0.037,0.0343,0.0265,0.025,0.0296,0.0288,0.0281,0.0282,0.0282,0,0.0465,0.0469,0.0486,0.0498,0.0496,0.0519,0.0542,0.0566,0.0602,0.064,0.0674,0.0668,0.069,0.0597,0.0503,0.0412,0.0359,0.0363,0.0323,0.03,0.0257,0.027,0.0261,0.0362,0.0362,0.0363,0.0363,0,0.0435,0.0448,0.045,0.0485,0.0512,0.0549,0.0591,0.0638,0.0682,0.0733,0.0804,0.0826,0.0728,0.0689,0.055,0.0461,0.0387,0.037,0.0333,0.0334,0.0365,0.0328,0.0326,0.0369,0.0368,0.0368,0.0367,0.0367,0.0405,0.0408,0.0432,0.0466,0.051,0.0591,0.0666,0.0737,0.0832,0.0957,0.0933,0.1004,0.0909,0.0732,0.057,0.0385,0.0393,0.0351,0.0338,0.0355,0.0353,0.0376,0.0382,0.0381,0.0381,0.0381,0.038,0,0.0357,0.0384,0.0415,0.0479,0.055,0.0583,0.071,0.0822,0.0987,0.108,0.1166,0.1213,0.1056,0.0844,0.0606,0.0434,0.0352,0.0344,0.037,0.0359,0.0367,0.0373,0.0394,0.0394,0.0394,0.0394,0.0394,0.0394,0.0336,0.0353,0.0387,0.0502,0.0574,0.0726,0.0833,0.1008,0.1134,0.1339,0.1436,0.1461,0.1427,0.0942,0.0609,0.0472,0.0379,0.0349,0.03,0.0293,0.0293,0.0292,0.0293,0.0297,0.0297,0.0322,0.0322,0.0322]}],[{"header":{"parameterUnit":"m.s-1","parameterCategory":2,"la1":30.2991,"la2":30.254,"lo1":-89.0895,"lo2":-89.0444,"dy":0.0017,"dx":0.0017,"nx":28,"ny":28,"refTime":"2023-04-29T21:00:00:Z","depth":"2","parameterNumber":2,"parameterNumberName":"U-component_of_CURRENTS"},"data":[0,0,0,0,0,0,0,0,0,0,0,0,0,0,0,0,0,0,0,0,0,0,0,0,0,0,0,0,0,0,0,0,0,0,0,0,0,0,0,0,0,0,0,0,0,0,0,0,0,0,0,0,0,0,0,0,0,0,0.3951,0.395,0,0.3972,0.3975,0.3977,0.4096,0.4097,0.4098,0.4099,0.4091,0.409,0.4089,0,0,0,0,0,0,0,0,0,0,0,0,0,0.3724,0.3731,0.3952,0.395,0.3948,0.3972,0.3975,0.3977,0.4096,0.4097,0.4098,0.4099,0.4091,0.409,0.4089,0,0,0,0,0,0,0,0,0,0,0,0,0,0.3814,0.3734,0.3952,0.3993,0.3996,0.3972,0.3975,0.3978,0.4096,0.4097,0.4098,0.4099,0.4092,0.409,0.4089,0.4057,0,0,0.4085,0.4084,0,0,0,0,0,0,0,0,0.3809,0.3826,0.3989,0.399,0.3993,0.4013,0.389,0.3995,0.4096,0.4082,0.4099,0.41,0.4046,0.4049,0.4083,0.4057,0.4056,0.4085,0.4084,0.4083,0.4083,0,0,0,0,0,0,0,0.3803,0.3823,0.3983,0.3987,0.3988,0.3909,0.3929,0.3911,0.4075,0.4083,0.4086,0.4052,0.4051,0.4085,0.4083,0.4056,0.4085,0.4083,0.4083,0.4082,0.4053,0.4053,0,0,0,0,0,0,0.377,0.382,0.3982,0.3981,0.3876,0.3912,0.3935,0.4024,0.4076,0.4078,0.4051,0.4057,0.4086,0.4085,0.4083,0.405,0.4083,0.4082,0.4081,0.4053,0.4053,0.4053,0,0,0,0,0,0,0.3768,0.379,0.3981,0.3873,0.389,0.3915,0.4013,0.4023,0.4093,0.4047,0.4054,0.4111,0.4087,0.4085,0.4108,0.405,0.4081,0.408,0.4053,0.4053,0.4053,0.398,0,0,0,0,0,0,0.3764,0.3793,0.3816,0.3877,0.3894,0.3969,0.401,0.4022,0.4056,0.4067,0.4099,0.4099,0.4088,0.411,0.4106,0.4048,0.4079,0.4053,0.4053,0.4053,0.3982,0.3977,0.3973,0,0,0,0,0,0.3758,0.3784,0.3822,0.3835,0.3943,0.3966,0.3971,0.4001,0.4058,0.4078,0.4123,0.41,0.4107,0.411,0.4105,0.4045,0.4053,0.4053,0.4053,0.3984,0.3978,0.3973,0,0,0,0,0,0,0.3695,0.3798,0.3841,0.3901,0.3927,0.3977,0.3961,0.4022,0.4082,0.4103,0.4115,0.4116,0.4112,0.4106,0.411,0.4043,0.4069,0.4068,0.4018,0.4012,0.4008,0.3947,0.4078,0,0,0,0,0,0.3689,0.3732,0.3819,0.3842,0.3876,0.394,0.3945,0.3994,0.4043,0.4077,0.4108,0.4122,0.4102,0.4086,0.4089,0.4051,0.3993,0.401,0.4005,0.4001,0.3952,0.386,0.3841,0.4054,0.4054,0.4054,0,0,0.3646,0.3704,0.3721,0.3823,0.3859,0.3861,0.3956,0.3987,0.3979,0.4056,0.408,0.4123,0.4102,0.4069,0.406,0.4054,0.391,0.4001,0.3997,0.3949,0.3858,0.3836,0.3817,0.4054,0.4054,0.4054,0,0,0.3524,0.3676,0.3648,0.3695,0.374,0.38,0.3823,0.3928,0.3979,0.4015,0.4053,0.4071,0.4078,0.4031,0.4004,0.3975,0.391,0.3984,0.3876,0.3789,0.3768,0.375,0.3632,0.3604,0.3955,0.3955,0.3955,0,0.3443,0.3472,0.3624,0.3609,0.3604,0.378,0.374,0.3816,0.3906,0.3912,0.401,0.401,0.4034,0.3909,0.3921,0.3951,0.3892,0.3892,0.3775,0.3756,0.3738,0.3623,0.3592,0.3951,0.3952,0.3952,0.3952,0,0.3296,0.3323,0.3317,0.3372,0.3411,0.3414,0.3541,0.361,0.3726,0.3776,0.3779,0.3847,0.3825,0.3843,0.3878,0.3746,0.3741,0.3798,0.3774,0.3711,0.3595,0.3564,0.3946,0.3948,0.3949,0.3949,0,0,0.3083,0.3184,0.3172,0.3157,0.3299,0.3306,0.3345,0.3384,0.3373,0.3515,0.3455,0.3508,0.3598,0.3575,0.3623,0.3564,0.3428,0.3628,0.3625,0.3481,0.3197,0.3137,0.3098,0.3467,0.3462,0.3458,0.3159,0,0.289,0.2805,0.2918,0.2834,0.2824,0.3011,0.3005,0.3086,0.3205,0.322,0.3311,0.3305,0.3473,0.3472,0.3446,0.3451,0.3347,0.3501,0.3304,0.3296,0.3226,0.306,0.2908,0.2624,0.3129,0.3124,0.312,0,0.268,0.2662,0.2552,0.2584,0.2595,0.2572,0.2624,0.2644,0.2745,0.2843,0.2902,0.3025,0.2997,0.3164,0.3077,0.3173,0.316,0.3162,0.3151,0.3087,0.3177,0.2776,0.255,0.3069,0.3073,0.3077,0.308,0,0.2425,0.2396,0.2293,0.231,0.2385,0.2351,0.2385,0.2496,0.253,0.2593,0.2639,0.2671,0.2696,0.2698,0.2825,0.2924,0.2702,0.2832,0.2724,0.2719,0.254,0.2528,0.2677,0.2677,0.2678,0.2679,0.268,0,0.2191,0.2104,0.2157,0.2109,0.2007,0.2113,0.2044,0.2124,0.2196,0.2224,0.2411,0.2446,0.2594,0.258,0.2657,0.2581,0.256,0.2622,0.2611,0.2514,0.2504,0.2878,0.2905,0.2667,0.267,0.2672,0.2674,0,0.196,0.1979,0.1887,0.19,0.19,0.183,0.1899,0.1882,0.1956,0.1996,0.2019,0.221,0.2231,0.2313,0.229,0.2341,0.2282,0.2244,0.2114,0.2093,0.239,0.2418,0.2054,0.2049,0.2044,0.2041,0.2037,0,0.1839,0.176,0.1751,0.173,0.1736,0.1683,0.1692,0.177,0.1807,0.1895,0.1908,0.1938,0.2044,0.1946,0.198,0.1927,0.2091,0.1738,0.191,0.2285,0.2312,0.2347,0.238,0.1629,0.1623,0.1618,0.1613,0,0.1648,0.1651,0.1617,0.1581,0.1559,0.1557,0.1566,0.1563,0.1677,0.1709,0.1775,0.182,0.1786,0.1725,0.1641,0.1633,0.1751,0.1635,0.196,0.1855,0.1872,0.1906,0.1952,0.1568,0.1573,0.1576,0.1578,0.158,0.1543,0.1502,0.1488,0.1458,0.145,0.1461,0.1442,0.1477,0.15,0.1535,0.1616,0.1588,0.1588,0.1432,0.1353,0.1284,0.147,0.1436,0.1455,0.1479,0.1528,0.1541,0.118,0.1182,0.1184,0.1185,0.1187,0,0.1439,0.1421,0.1385,0.1371,0.1357,0.1388,0.1404,0.1367,0.1377,0.1382,0.1396,0.1231,0.1149,0.1133,0.0977,0.0967,0.1002,0.0918,0.0978,0.1022,0.1062,0.1096,0.0628,0.0626,0.0625,0.0623,0,0,0.1372,0.1323,0.1328,0.1298,0.1303,0.127,0.1276,0.1213,0.1178,0.1105,0.1048,0.1078,0.1101,0.0853,0.0814,0.0701,0.086,0.0654,0.1103,0.1218,0.1256,0.1355,0.1455,0,0,0,0,0]},{"header":{"parameterUnit":"m.s-1","parameterCategory":2,"la1":30.2991,"la2":30.254,"lo1":-89.0895,"lo2":-89.0444,"dy":0.0017,"dx":0.0017,"nx":28,"ny":28,"refTime":"2023-04-29T21:00:00:Z","depth":"2","parameterNumber":3,"parameterNumberName":"V-component_of_CURRENTS"},"data":[0,0,0,0,0,0,0,0,0,0,0,0,0,0,0,0,0,0,0,0,0,0,0,0,0,0,0,0,0,0,0,0,0,0,0,0,0,0,0,0,0,0,0,0,0,0,0,0,0,0,0,0,0,0,0,0,0,0,-0.0038,-0.0035,0,0.0101,0.0101,0.0101,0.0018,0.0016,0.0014,0.0012,-0.0125,-0.0127,-0.0129,0,0,0,0,0,0,0,0,0,0,0,0,0,-0.0147,-0.0147,-0.0038,-0.0034,-0.0031,0.0101,0.0101,0.0101,0.0018,0.0016,0.0013,0.0011,-0.0125,-0.0127,-0.0129,0,0,0,0,0,0,0,0,0,0,0,0,0,-0.0083,-0.0148,-0.0039,-0.0041,-0.0039,0.0101,0.0101,0.0101,0.0019,0.0016,0.0013,0.001,-0.0124,-0.0127,-0.0129,-0.0081,0,0,-0.0137,-0.0138,0,0,0,0,0,0,0,0,-0.0087,-0.0082,-0.0044,-0.004,-0.0037,0.0057,0.0014,0.0034,0.002,-0.0024,0.0012,0.0008,-0.0074,-0.0081,-0.0073,-0.0087,-0.0093,-0.0137,-0.0138,-0.0139,-0.014,0,0,0,0,0,0,0,-0.0091,-0.0086,-0.0004,-0.004,-0.0035,0.0031,0.0032,0.0018,-0.0054,-0.0021,-0.0021,0.0028,-0.0078,-0.007,-0.0077,-0.0095,-0.0137,-0.0139,-0.0141,-0.0142,-0.0166,-0.0165,0,0,0,0,0,0,-0.0076,-0.0092,-0.0008,0.0003,-0.0047,0.0036,0.0036,0.0013,-0.0048,-0.0052,0.003,0.0024,-0.0064,-0.0074,-0.0083,-0.0089,-0.0139,-0.0142,-0.0143,-0.0167,-0.0166,-0.0165,0,0,0,0,0,0,-0.008,-0.0073,-0.0013,-0.002,-0.0006,0.0041,0.0017,0.0018,0.0016,-0.0002,-0.0017,0.0027,-0.0067,-0.0079,-0.0115,-0.0094,-0.0143,-0.0145,-0.0168,-0.0167,-0.0165,-0.0065,0,0,0,0,0,0,-0.0086,-0.0078,-0.0086,-0.0022,-0.0004,0.0066,0.0022,0.0024,0.0062,0.0053,-0.0009,-0.0024,-0.0071,-0.0111,-0.0118,-0.0098,-0.0147,-0.0169,-0.0167,-0.0166,-0.0069,-0.006,-0.0053,0,0,0,0,0,-0.0091,-0.0071,-0.009,-0.0076,-0.0022,0.007,0.0083,0.0095,0.0065,0.0074,0.0018,-0.0023,-0.0106,-0.0112,-0.012,-0.0101,-0.017,-0.0168,-0.0166,-0.0073,-0.0062,-0.0053,0,0,0,0,0,0,-0.0111,-0.0074,-0.0093,-0.0066,-0.0006,0.0063,0.01,0.0105,0.0076,0.0046,-0.0009,-0.0026,-0.0051,-0.0085,-0.0091,-0.0104,-0.0145,-0.0144,-0.0071,-0.0061,-0.0053,-0.0023,-0.0149,0,0,0,0,0,-0.0117,-0.0101,-0.0053,-0.0017,-0.0003,0.0041,0.0082,0.0088,0.0093,0.0076,0.0033,-0.0016,-0.004,-0.0062,-0.0096,-0.0093,-0.0114,-0.0088,-0.0079,-0.0072,-0.0053,-0.007,-0.0061,-0.0159,-0.0159,-0.0159,0,0,-0.0085,-0.0073,-0.0051,-0.0017,0.0014,0.0054,0.0049,0.0112,0.0137,0.0066,0.0047,0.001,-0.0035,-0.0045,-0.0057,-0.0076,-0.0054,-0.007,-0.0063,-0.0048,-0.0067,-0.0057,-0.0048,-0.0157,-0.0157,-0.0158,0,0,-0.0006,-0.0043,-0.0007,0.0016,0.0071,0.009,0.0106,0.0145,0.0135,0.0147,0.009,0.0071,0.0032,0.0009,-0.0005,0.0035,-0.0011,0.0018,0.0088,0.0072,0.0081,0.0088,0.0085,0.0091,0.0024,0.0025,0.0025,0,0.0035,0.0041,0.0035,0.0057,0.009,0.0098,0.0141,0.0152,0.0175,0.0181,0.0141,0.0111,0.0066,0.0078,0.0085,0.0057,0.004,0.0055,0.0085,0.0091,0.0097,0.0092,0.0097,0.003,0.0029,0.0029,0.0028,0,0.0128,0.0118,0.0146,0.0145,0.0174,0.0223,0.023,0.0238,0.0226,0.0244,0.0247,0.0199,0.0187,0.0172,0.0142,0.0166,0.014,0.0097,0.0065,0.0113,0.0104,0.0108,0.0037,0.0035,0.0034,0.0032,0,0,0.0256,0.022,0.0224,0.0208,0.021,0.025,0.0271,0.0314,0.0334,0.0332,0.037,0.034,0.0323,0.0307,0.0267,0.0257,0.0281,0.0202,0.0199,0.021,0.0257,0.0252,0.0255,0.0237,0.0238,0.0239,0.0239,0,0.0334,0.0358,0.0331,0.0364,0.0363,0.0344,0.0368,0.0393,0.0399,0.0425,0.0413,0.0416,0.0372,0.0364,0.0358,0.0296,0.0293,0.0286,0.02,0.0198,0.0195,0.026,0.0259,0.026,0.0243,0.0243,0.0244,0,0.0416,0.0411,0.0437,0.0412,0.0415,0.0441,0.0459,0.0484,0.0514,0.0516,0.0536,0.052,0.0532,0.0468,0.0427,0.0422,0.0359,0.0307,0.0305,0.0271,0.02,0.0205,0.0267,0.0249,0.0249,0.0248,0.0248,0,0.0466,0.0478,0.0489,0.0482,0.047,0.0488,0.0497,0.0517,0.0534,0.0573,0.0585,0.0606,0.0595,0.0547,0.0466,0.0442,0.0408,0.0352,0.0295,0.0294,0.0264,0.0258,0.0323,0.0323,0.0323,0.0323,0.0323,0,0.0516,0.0521,0.051,0.0506,0.0537,0.0518,0.0557,0.0566,0.0596,0.0633,0.0628,0.0653,0.0607,0.0586,0.0511,0.0436,0.0444,0.0336,0.0302,0.0299,0.0297,0.0254,0.0246,0.0323,0.0323,0.0323,0.0323,0,0.0521,0.0521,0.0523,0.053,0.0541,0.0552,0.0574,0.0605,0.0615,0.0664,0.0679,0.0692,0.0664,0.0613,0.0535,0.0478,0.0408,0.0367,0.0382,0.0351,0.0296,0.0293,0.0324,0.0324,0.0324,0.0324,0.0324,0,0.0508,0.0511,0.0528,0.0541,0.0539,0.0562,0.0587,0.0611,0.0649,0.0687,0.0722,0.0714,0.0734,0.064,0.0542,0.0449,0.0404,0.0369,0.0325,0.0336,0.03,0.0297,0.0294,0.0324,0.0324,0.0324,0.0324,0,0.0477,0.0489,0.0492,0.0527,0.0556,0.0594,0.0638,0.0684,0.073,0.0778,0.0845,0.0865,0.0764,0.0694,0.0553,0.047,0.0396,0.0365,0.0378,0.0324,0.0336,0.03,0.0297,0.0324,0.0324,0.0324,0.0324,0.0324,0.0446,0.045,0.0473,0.0509,0.0554,0.0637,0.0711,0.0779,0.0871,0.0972,0.0952,0.0966,0.0841,0.0672,0.0536,0.0382,0.0386,0.0326,0.0326,0.0325,0.0326,0.0337,0.0327,0.0327,0.0327,0.0327,0.0327,0,0.04,0.0427,0.0459,0.0524,0.0598,0.0629,0.0757,0.0855,0.1007,0.1048,0.1111,0.0978,0.0856,0.0683,0.0468,0.0349,0.0318,0.0288,0.0283,0.0285,0.0286,0.0283,0.0273,0.0272,0.0272,0.0271,0,0,0.0381,0.0401,0.0437,0.0554,0.0623,0.0773,0.0878,0.1018,0.1096,0.1183,0.1172,0.1121,0.0908,0.0739,0.0559,0.0425,0.038,0.0383,0.0442,0.0462,0.0464,0.0325,0.0325,0,0,0,0,0]}],[{"header":{"parameterUnit":"m.s-1","parameterCategory":2,"la1":30.2991,"la2":30.254,"lo1":-89.0895,"lo2":-89.0444,"dy":0.0017,"dx":0.0017,"nx":28,"ny":28,"refTime":"2023-04-29T21:00:00:Z","depth":"4","parameterNumber":2,"parameterNumberName":"U-component_of_CURRENTS"},"data":[0,0,0,0,0,0,0,0,0,0,0,0,0,0,0,0,0,0,0,0,0,0,0,0,0,0,0,0,0,0,0,0,0,0,0,0,0,0,0,0,0,0,0,0,0,0,0,0,0,0,0,0,0,0,0,0,0,0,-0.0537,-0.054,0,-0.0687,-0.0688,-0.0688,-0.0666,-0.0665,-0.0663,-0.0662,-0.0073,-0.0059,-0.0045,0,0,0,0,0,0,0,0,0,0,0,0,0,-0.0378,-0.0379,-0.0537,-0.054,-0.0543,-0.0687,-0.0688,-0.0689,-0.0666,-0.0665,-0.0663,-0.0662,-0.0078,-0.0061,-0.0044,0,0,0,0,0,0,0,0,0,0,0,0,0,-0.0467,-0.0379,-0.0536,-0.0558,-0.0563,-0.0687,-0.0688,-0.0689,-0.0667,-0.0665,-0.0663,-0.0661,-0.0084,-0.0063,-0.0041,0.005,0,0,0.0025,0.0034,0,0,0,0,0,0,0,0,-0.0461,-0.0471,-0.0552,-0.0557,-0.0563,-0.0667,-0.0417,-0.0409,-0.0667,-0.0614,-0.0662,-0.066,-0.0212,-0.0181,-0.0206,0.0078,0.0103,0.0026,0.004,0.0049,0.0055,0,0,0,0,0,0,0,-0.0455,-0.0465,-0.0584,-0.0556,-0.0562,-0.0612,-0.0619,-0.0418,-0.0399,-0.0619,-0.0621,-0.0658,-0.0208,-0.0228,-0.019,0.0112,0.0026,0.0045,0.0058,0.0067,0.0732,0.0737,0,0,0,0,0,0,-0.0457,-0.0459,-0.0579,-0.0589,-0.052,-0.0617,-0.0625,-0.0625,-0.0418,-0.0395,-0.0659,-0.0657,-0.0266,-0.0216,-0.0168,0.0137,0.0049,0.0069,0.0081,0.0727,0.0733,0.0738,0,0,0,0,0,0,-0.0452,-0.0464,-0.0573,-0.054,-0.0559,-0.0622,-0.0623,-0.063,-0.0565,-0.046,-0.0418,-0.058,-0.0262,-0.0198,0.0061,0.0155,0.0079,0.0098,0.0722,0.0729,0.0736,0.0635,0,0,0,0,0,0,-0.0446,-0.0461,-0.0403,-0.0539,-0.0561,-0.0595,-0.0626,-0.0634,-0.0603,-0.0597,-0.0377,-0.0329,-0.0256,0.0028,0.0083,0.0183,0.0115,0.0716,0.0725,0.0733,0.0632,0.0637,0.0642,0,0,0,0,0,-0.0439,-0.0377,-0.0399,-0.0412,-0.0498,-0.0595,-0.0607,-0.064,-0.06,-0.0568,-0.0421,-0.0331,0.0124,0.0049,0.0112,0.0221,0.0712,0.0722,0.0733,0.063,0.0636,0.0642,0,0,0,0,0,0,-0.0299,-0.0376,-0.04,-0.0368,-0.0456,-0.0594,-0.0558,-0.0583,-0.046,-0.0381,-0.0269,-0.021,0.0043,0.0168,0.0082,0.0443,0.0437,0.046,0.0337,0.0345,0.035,0.0316,0.0133,0,0,0,0,0,-0.0245,-0.0191,-0.033,-0.03,-0.0327,-0.0419,-0.0436,-0.0461,-0.0421,-0.0368,-0.0213,-0.0023,0.0118,0.026,0.042,0.0646,0.0664,0.0763,0.0768,0.0771,0.0791,0.0899,0.0913,0.0773,0.0773,0.0773,0,0,-0.0192,-0.0222,-0.0196,-0.0261,-0.0314,-0.0348,-0.0415,-0.0412,-0.0417,-0.0298,-0.012,0.0023,0.0182,0.0378,0.051,0.0513,0.0798,0.0784,0.0784,0.0804,0.0911,0.0924,0.0935,0.078,0.0779,0.0778,0,0,-0.0069,-0.0079,0.0007,-0.0064,-0.0125,-0.0211,-0.0188,-0.024,-0.0226,-0.0088,-0.002,0.0156,0.0448,0.0506,0.0579,0.0737,0.0808,0.0857,0.0879,0.0982,0.0992,0.1002,0.0907,0.091,0.0873,0.0873,0.0872,0,-0.0005,0.0053,0.0005,0.0025,-0.0026,-0.0133,-0.0117,-0.016,-0.0104,-0.0093,0.0,0.0322,0.0469,0.0601,0.065,0.0741,0.0777,0.0817,0.0978,0.0989,0.1001,0.0904,0.0907,0.0869,0.0869,0.087,0.087,0,0.0127,0.0172,0.0198,0.0188,0.015,0.013,0.002,0.0037,0.0075,0.0032,0.0218,0.0394,0.0585,0.0653,0.0714,0.088,0.0858,0.0941,0.0929,0.1006,0.09,0.0905,0.0864,0.0865,0.0866,0.0867,0,0,0.0272,0.0285,0.031,0.0302,0.0223,0.0181,0.0163,0.0066,0.0074,0.0176,0.0231,0.0447,0.0565,0.0662,0.0785,0.088,0.0934,0.0984,0.0991,0.0826,0.106,0.094,0.0933,0.1088,0.1092,0.1096,0.0899,0,0.0374,0.0429,0.0434,0.0459,0.0434,0.0315,0.0318,0.0239,0.0209,0.0246,0.0307,0.049,0.0552,0.0745,0.0823,0.0981,0.0975,0.0973,0.107,0.1068,0.0905,0.0948,0.1109,0.0903,0.0904,0.0905,0.0906,0,0.05,0.0511,0.0554,0.0547,0.0546,0.0557,0.0476,0.0469,0.0387,0.0424,0.0502,0.0583,0.0737,0.0823,0.0985,0.1017,0.1031,0.1071,0.1066,0.1014,0.0967,0.0858,0.0916,0.0915,0.0914,0.0914,0.0913,0,0.0554,0.0599,0.0627,0.0598,0.0578,0.0598,0.0598,0.0528,0.0514,0.0557,0.0611,0.0746,0.0915,0.0998,0.1053,0.1103,0.1147,0.1208,0.1014,0.0996,0.1194,0.1188,0.1235,0.1235,0.1236,0.1236,0.1237,0,0.0603,0.0635,0.0656,0.0645,0.0694,0.0708,0.0748,0.073,0.0755,0.0747,0.0782,0.0845,0.1015,0.1016,0.1041,0.1021,0.1126,0.1002,0.0985,0.1138,0.1131,0.1186,0.1183,0.1228,0.123,0.1232,0.1233,0,0.0631,0.0648,0.0652,0.0685,0.0701,0.0739,0.0787,0.0792,0.0877,0.0869,0.0929,0.0968,0.1048,0.1007,0.1108,0.1019,0.1004,0.0917,0.0925,0.0912,0.075,0.0746,0.0733,0.0729,0.0725,0.0721,0.0718,0,0.0626,0.0641,0.0649,0.0648,0.0667,0.0717,0.0736,0.0823,0.0813,0.0905,0.0897,0.0979,0.0974,0.0916,0.0956,0.0855,0.0839,0.0728,0.0886,0.0738,0.0722,0.0724,0.0724,0.0712,0.0711,0.071,0.0709,0,0.06,0.062,0.0611,0.0592,0.0614,0.061,0.0657,0.0676,0.0774,0.0846,0.0877,0.0864,0.0858,0.0879,0.0766,0.0709,0.0804,0.0687,0.0698,0.0845,0.0712,0.07,0.0706,0.0695,0.0697,0.0698,0.0699,0,0.0568,0.0538,0.0527,0.0506,0.0519,0.0507,0.0544,0.0577,0.0622,0.0756,0.0756,0.08,0.0876,0.079,0.0701,0.064,0.0662,0.0616,0.0631,0.0646,0.0717,0.0541,0.0454,0,0,0,0,0,0.0515,0.0462,0.0434,0.0399,0.0413,0.0424,0.0473,0.0522,0.0629,0.0632,0.0709,0.0698,0.0661,0.0667,0.0591,0.0623,0.0626,0.0519,0.0574,0.0617,0.0633,0.0727,0,0,0,0,0,0,0.0478,0.0434,0.0391,0.0315,0.0297,0.0295,0.034,0.0414,0.043,0.0556,0.0554,0.0616,0.0597,0.0714,0.0576,0.0566,0.0567,0.0542,0.0537,0.0607,0.0622,0.0635,0.0738,0,0,0,0,0]},{"header":{"parameterUnit":"m.s-1","parameterCategory":2,"la1":30.2991,"la2":30.254,"lo1":-89.0895,"lo2":-89.0444,"dy":0.0017,"dx":0.0017,"nx":28,"ny":28,"refTime":"2023-04-29T21:00:00:Z","depth":"4","parameterNumber":3,"parameterNumberName":"V-component_of_CURRENTS"},"data":[0,0,0,0,0,0,0,0,0,0,0,0,0,0,0,0,0,0,0,0,0,0,0,0,0,0,0,0,0,0,0,0,0,0,0,0,0,0,0,0,0,0,0,0,0,0,0,0,0,0,0,0,0,0,0,0,0,0,0.0467,0.0468,0,0.05,0.05,0.05,0.0571,0.0573,0.0575,0.0576,0.0675,0.0676,0.0677,0,0,0,0,0,0,0,0,0,0,0,0,0,0.0529,0.0527,0.0467,0.0468,0.0469,0.05,0.05,0.05,0.0571,0.0573,0.0575,0.0577,0.0675,0.0676,0.0677,0,0,0,0,0,0,0,0,0,0,0,0,0,0.0521,0.0526,0.0467,0.0511,0.0516,0.05,0.05,0.05,0.057,0.0573,0.0576,0.0578,0.0675,0.0676,0.0677,0.063,0,0,0.0682,0.0682,0,0,0,0,0,0,0,0,0.0522,0.0518,0.0504,0.0508,0.0513,0.0538,0.0558,0.0548,0.057,0.0545,0.0576,0.058,0.0636,0.0641,0.0634,0.0635,0.0639,0.0682,0.0683,0.0683,0.0684,0,0,0,0,0,0,0,0.0522,0.0518,0.0476,0.0505,0.051,0.0551,0.0552,0.0556,0.0573,0.0547,0.0554,0.0563,0.0639,0.0632,0.0637,0.0641,0.0682,0.0683,0.0684,0.0684,0.0715,0.0715,0,0,0,0,0,0,0.052,0.0517,0.0475,0.0477,0.0529,0.0548,0.0549,0.0524,0.0571,0.0582,0.0561,0.0566,0.0629,0.0635,0.0641,0.0732,0.0683,0.0684,0.0685,0.0715,0.0715,0.0715,0,0,0,0,0,0,0.052,0.0514,0.0474,0.0504,0.0503,0.0544,0.0515,0.0523,0.0559,0.0582,0.0593,0.0595,0.0631,0.0639,0.0684,0.0732,0.0685,0.0686,0.0715,0.0715,0.0715,0.0823,0,0,0,0,0,0,0.0521,0.0513,0.0509,0.0502,0.0501,0.0483,0.0513,0.0522,0.056,0.0569,0.0614,0.0623,0.0634,0.0681,0.0685,0.0733,0.0687,0.0715,0.0715,0.0715,0.0819,0.0826,0.0833,0,0,0,0,0,0.0522,0.0499,0.0508,0.0505,0.0488,0.0484,0.0486,0.0523,0.056,0.0568,0.0611,0.0624,0.0684,0.0683,0.0687,0.0736,0.0715,0.0715,0.0715,0.0816,0.0825,0.0832,0,0,0,0,0,0,0.0563,0.0504,0.0514,0.0486,0.0497,0.0498,0.0525,0.0538,0.0574,0.0613,0.0627,0.0639,0.07,0.0682,0.068,0.0737,0.0699,0.07,0.0774,0.0783,0.0789,0.0771,0.0689,0,0,0,0,0,0.0558,0.0514,0.0495,0.0492,0.0496,0.0516,0.0528,0.0554,0.0579,0.06,0.0639,0.067,0.0689,0.0712,0.0728,0.0753,0.0714,0.0781,0.0788,0.0794,0.0776,0.0749,0.0753,0.0715,0.0715,0.0715,0,0,0.0611,0.0548,0.0553,0.0497,0.0518,0.0525,0.0531,0.0569,0.0585,0.0604,0.0671,0.0706,0.07,0.0747,0.0769,0.0749,0.0786,0.0794,0.08,0.0778,0.075,0.0754,0.0757,0.0715,0.0715,0.0715,0,0,0.0635,0.0609,0.0572,0.0557,0.0556,0.0571,0.0587,0.0613,0.0637,0.0677,0.071,0.0757,0.0791,0.0801,0.0801,0.0837,0.0827,0.0865,0.0889,0.0865,0.0868,0.087,0.0843,0.0842,0.0864,0.0865,0.0865,0,0.0651,0.0612,0.0581,0.053,0.0533,0.0593,0.0591,0.0616,0.0666,0.0668,0.0715,0.0775,0.08,0.0818,0.0858,0.0856,0.0846,0.0873,0.0876,0.0877,0.0878,0.0849,0.0846,0.087,0.0869,0.0869,0.0868,0,0.0652,0.0623,0.0615,0.0559,0.0569,0.0584,0.0608,0.0651,0.0707,0.0719,0.0772,0.0817,0.0845,0.0875,0.0891,0.0919,0.0913,0.0898,0.0864,0.0889,0.0856,0.0852,0.0877,0.0875,0.0874,0.0872,0,0,0.0613,0.0595,0.0588,0.0581,0.0573,0.0586,0.0621,0.0632,0.0655,0.0731,0.0742,0.0816,0.0872,0.0874,0.0921,0.0918,0.0946,0.0936,0.0932,0.0923,0.0909,0.0825,0.0811,0.0958,0.0957,0.0957,0.0893,0,0.0594,0.0528,0.0521,0.0542,0.0536,0.0568,0.0588,0.0622,0.0661,0.0702,0.0745,0.0805,0.086,0.0925,0.0931,0.0941,0.0937,0.0965,0.0871,0.0867,0.0802,0.0803,0.0955,0.0889,0.0888,0.0887,0.0886,0,0.0558,0.0516,0.0504,0.0511,0.0512,0.0542,0.0579,0.0601,0.0642,0.0671,0.0731,0.0794,0.0849,0.0894,0.0895,0.0926,0.0932,0.0923,0.092,0.0792,0.0773,0.085,0.0877,0.0878,0.0878,0.0879,0.088,0,0.0538,0.0497,0.0494,0.0489,0.0515,0.0524,0.0561,0.0595,0.0618,0.0678,0.0712,0.0771,0.0829,0.0835,0.0855,0.09,0.0814,0.0853,0.0765,0.0759,0.081,0.0808,0.0828,0.0828,0.0828,0.0828,0.0829,0,0.0477,0.0474,0.0495,0.0492,0.0519,0.0529,0.0567,0.0593,0.0638,0.0677,0.0728,0.0774,0.0827,0.0809,0.0821,0.0756,0.0779,0.0752,0.0729,0.0858,0.0862,0.0808,0.0806,0.0826,0.0827,0.0827,0.0827,0,0.0458,0.0461,0.0467,0.0494,0.0514,0.0542,0.0602,0.0633,0.0653,0.0706,0.0748,0.0783,0.0761,0.0739,0.072,0.0697,0.0643,0.0611,0.0723,0.0709,0.0626,0.063,0.0532,0.0529,0.0526,0.0523,0.0521,0,0.0437,0.0439,0.0487,0.0515,0.0533,0.0579,0.0625,0.0664,0.0701,0.0715,0.075,0.0737,0.0756,0.0616,0.0605,0.0531,0.0537,0.05,0.0604,0.0604,0.0592,0.0602,0.061,0.0516,0.0515,0.0514,0.0514,0,0.0414,0.0445,0.0465,0.0527,0.0583,0.0639,0.07,0.0726,0.0771,0.0775,0.076,0.0722,0.0652,0.0605,0.0505,0.0476,0.0521,0.0469,0.0478,0.0576,0.0583,0.0576,0.0588,0.0503,0.0504,0.0505,0.0506,0,0.0414,0.0438,0.0488,0.0543,0.0615,0.0691,0.0715,0.0755,0.0788,0.0793,0.0786,0.0711,0.069,0.0572,0.0496,0.0423,0.0459,0.0474,0.0484,0.0495,0.0503,0.0508,0.0369,0,0,0,0,0,0.0407,0.0448,0.0501,0.0575,0.0646,0.0695,0.0769,0.0789,0.0818,0.0809,0.0796,0.0734,0.0613,0.0563,0.0481,0.0472,0.0454,0.0373,0.0478,0.0443,0.0455,0.0463,0,0,0,0,0,0,0.041,0.0458,0.0501,0.0599,0.0651,0.0743,0.0795,0.0812,0.0803,0.0801,0.0735,0.0701,0.0585,0.0649,0.0471,0.045,0.0504,0.0317,0.0315,0.0436,0.0447,0.0457,0.0469,0,0,0,0,0]}]]